Location: *
(43.4667°N, 11.6833°E)
Time: 05:07:30
(UTC+00:00)

Cosmos 1263 - Pass Details

Date: 19 July 2019
Orbit: 383 x 1344 km, 82.9° (Epoch: 20 August)

Event Time Altitude Azimuth Distance (km) Brightness Sun altitude
Rises 21:20:14 0° 349° (N) 2,277 9.3 -20.2°
Reaches altitude 10° 21:22:09 10° 346° (NNW) 1,430 8.0 -20.3°
Enters shadow 21:25:05 66° 272° (W) 453 4.4 -20.6°
